{"data":{"norad_id":68267,"epoch":"2026-05-25T04:34:53.524128Z","epoch_age_seconds":51864,"freshness":"FRESH","line1":"1 68267U 26055F   26145.19089727  .00038923  00000+0  11203-2 0  9991","line2":"2 68267  53.1595 322.5034 0001421  66.7609 293.3544 15.35418348 11666","mean_motion":15.35418348,"eccentricity":0.0001421,"inclination_deg":53.1595,"raan_deg":322.5034,"arg_perigee_deg":66.7609,"mean_anomaly_deg":293.3544,"bstar":0.0011203,"rev_number":1166,"period_min":93.785514669387,"perigee_km":458.70651480906,"apogee_km":460.6498218799,"semimajor_km":6837.8151683445,"source":"CELESTRAK","updated_at":"2026-05-25T13:38:21.890940Z"}}